sat.trackr.live / text

‹ back to catalog

STARLINK-36590

NORAD 67577 · 2026-016S

PAYLOAD ACTIVE UNKNOWN

§ Identity

Operator
Country
US
Launch date
2026-01-25
Launch site
AFWTR
Launch vehicle
Mass (kg)
RCS (m²)

Purposes: comms

External: N2YO · Heavens-Above · Gunter

§ Orbital elements

Epoch: 2026-05-25T03:42:25.286976Z

Period
93.91 min
Inclination
97.2846°
Eccentricity
0.0000740
Mean motion
15.33453930 rev/d
Perigee alt
465.0 km
Apogee alt
466.0 km
Semi-major
6,843.7 km
B*
6.2156e-4
RAAN
205.5009°
Arg perigee
101.7293°
Mean anomaly
258.4033°
Rev number
1,858

§ Raw data

STARLINK-365901 67577U 26016S   26145.15445934  .00020050  00000+0  62156-3 0  99992 67577  97.2846 205.5009 0000740 101.7293 258.4033 15.33453930 18588

JSON: /api/v1/satellites/67577 · /tle

For live sub-satellite position, see the globe view (requires WebGL).

§ Visibility from observer

Set your observer location to see the next 7 days of passes ≥ 10°. The values pass through the URL so the page stays shareable.

No JS? Fill the form by hand. The geolocation button needs JavaScript.